Theta_e
323 321 316 315 314 314 311 310 301 302 301 297 296 298 298 302 303 302 302 305 302 316 326 331 329 327 323 321 323 325 323 322 324 314 312 325 340 341 343 342 344 347 345 348 350 352 354 355 354 353 351 350 350 351 351 351 352 353 353 354 354 354 354 354 354 354 353 353 353 353 354 353 353 353 351 350 350 349 348 348 347 346 345 345 344 345 345 345 346 346 346 346 346 346 346 346 345
321 315 319 317 312 312 308 305 301 299 299 297 298 299 300 301 303 302 302 303 304 311 327 331 332 329 329 329 329 331 328 332 331 331 333 336 341 340 343 344 345 344 346 348 350 353 352 353 353 352 351 351 351 351 350 351 353 353 354 354 354 354 354 354 353 353 353 353 353 354 353 353 352 352 351 350 350 350 350 349 349 349 348 346 345 346 346 345 345 346 346 347 346 346 346 345 345
317 315 317 311 311 310 307 306 298 295 294 293 298 299 301 301 301 303 304 304 305 309 319 326 326 328 326 327 321 320 319 332 333 334 334 339 334 337 343 346 346 346 346 349 351 352 353 354 353 352 351 351 351 350 350 351 353 353 354 353 353 353 354 354 353 354 353 353 353 354 353 352 352 351 351 350 350 350 350 350 349 349 348 347 346 346 347 347 347 346 346 347 346 346 346 346 345
313 320 313 310 308 309 306 303 300 298 294 295 294 299 300 301 302 304 306 305 306 306 321 317 308 325 322 310 319 329 327 332 335 335 331 333 336 341 344 346 347 347 348 349 351 351 353 354 353 352 351 350 351 350 350 352 353 353 354 353 353 353 353 353 354 354 354 353 353 353 353 352 352 352 351 350 350 350 350 348 347 348 348 348 347 346 347 347 346 346 346 346 347 347 346 346 345
311 314 315 310 308 304 304 298 298 298 295 296 295 301 301 303 303 303 304 305 306 307 315 315 316 330 329 328 330 323 326 334 335 338 336 338 343 343 344 346 346 346 346 349 350 351 352 352 352 352 350 350 350 350 350 352 353 353 353 353 353 353 353 353 354 354 353 353 353 353 353 353 352 352 352 351 350 350 350 349 348 348 347 347 346 346 346 346 346 346 346 347 347 347 346 345 345
311 313 312 312 307 307 303 297 296 297 301 299 297 301 302 304 303 304 303 305 306 305 309 316 308 310 326 332 335 333 334 332 337 337 338 338 342 344 345 346 345 344 345 348 350 351 352 353 352 351 351 350 350 350 350 353 353 352 353 353 353 353 353 353 354 353 353 353 353 353 353 352 352 352 351 351 350 350 350 348 346 345 344 345 345 344 345 345 345 345 345 346 347 347 346 345 345
311 311 310 309 306 306 300 298 297 298 301 300 300 302 304 304 305 303 304 304 306 312 310 308 326 321 320 332 333 335 339 339 337 339 341 341 344 344 344 344 344 344 346 346 348 350 350 352 351 351 351 350 350 350 350 352 352 353 353 353 353 353 353 353 353 353 353 353 353 353 352 352 352 352 351 350 350 350 349 347 345 345 346 346 346 345 345 345 346 346 345 345 345 345 346 346 346
311 308 306 304 300 301 298 298 298 298 300 300 301 300 304 305 304 304 304 303 303 303 305 325 326 311 314 333 327 335 340 341 341 343 343 343 343 344 344 344 343 344 344 347 349 350 353 352 351 350 350 350 350 350 351 352 352 352 352 353 353 353 353 353 353 353 353 353 353 352 352 352 352 351 351 350 350 349 347 347 346 346 346 345 345 345 345 345 345 345 346 346 345 345 345 346 347
310 309 302 303 299 297 297 297 298 297 299 298 299 301 307 306 306 304 304 303 303 305 305 318 325 307 319 328 329 334 337 341 343 344 343 343 343 344 344 343 342 342 343 345 347 350 352 351 351 350 350 350 350 350 351 352 352 352 352 352 353 353 353 353 353 352 352 352 352 352 351 351 351 351 351 350 350 349 348 348 348 347 346 345 345 345 345 346 346 345 345 346 346 347 347 346 346
307 305 302 301 300 296 296 296 295 299 299 302 300 302 303 304 303 303 303 303 304 302 305 320 321 308 321 327 331 333 334 341 342 341 342 343 344 345 344 344 343 343 343 345 348 350 351 351 350 350 350 351 350 350 351 352 352 352 352 353 353 353 353 353 353 352 352 352 352 351 351 350 350 350 349 349 349 348 348 348 348 347 345 345 345 345 346 345 346 346 345 346 346 347 347 347 346
302 304 304 300 296 295 294 296 297 297 298 300 300 301 302 304 303 303 303 303 303 303 304 322 313 319 326 329 329 333 338 340 340 338 342 343 344 344 343 345 344 344 343 346 349 349 349 349 350 351 351 351 350 350 350 352 352 352 353 353 353 353 353 353 352 352 352 351 351 351 350 350 349 349 348 347 346 346 345 345 345 345 345 345 345 345 345 345 345 346 345 346 346 346 347 347 346
301 302 300 297 296 296 296 297 298 299 299 298 301 303 304 304 303 302 303 301 302 302 303 317 306 332 325 327 328 334 337 338 340 340 342 344 342 343 344 343 344 345 346 348 348 348 348 349 349 351 351 350 350 350 351 352 352 353 353 353 353 353 352 352 352 352 351 351 351 350 349 349 348 347 347 347 346 345 345 345 345 344 344 344 344 344 344 345 345 345 346 346 347 347 347 347 347
302 301 300 297 297 297 298 296 298 298 298 299 302 304 304 303 302 304 303 302 301 301 304 313 331 324 321 326 330 333 334 336 339 341 342 341 342 343 344 342 344 346 346 348 346 346 348 347 348 349 350 351 350 351 352 352 352 353 353 353 352 352 352 351 351 351 351 350 350 349 348 348 347 347 346 346 345 345 344 344 344 344 344 344 344 344 345 345 345 346 346 346 347 347 347 347 347
302 302 301 296 296 298 297 297 297 297 298 301 303 305 304 303 303 304 303 302 302 301 310 324 326 328 327 325 325 329 332 337 338 340 341 342 342 342 342 343 345 345 347 346 345 346 347 347 348 348 348 351 350 351 351 352 352 352 352 352 352 352 352 351 351 351 350 349 349 349 348 347 346 345 344 343 342 342 343 343 343 343 343 343 343 344 344 344 345 344 344 345 346 347 347 346 345
302 301 301 299 296 296 298 296 297 296 298 301 303 302 303 306 303 302 303 301 304 316 332 330 333 318 316 321 324 327 333 336 338 340 341 340 340 341 342 343 344 345 344 345 345 345 345 346 346 348 349 348 349 350 352 351 351 352 352 352 351 352 351 351 350 350 350 349 349 348 347 345 345 343 342 341 341 340 340 342 342 342 343 342 343 343 343 343 344 345 345 346 346 346 346 343 340
304 301 301 296 295 295 296 297 298 297 298 300 303 301 301 303 303 303 304 306 318 335 336 327 335 324 330 326 329 332 335 337 339 339 339 338 339 340 340 341 342 342 343 343 344 344 345 345 347 346 348 348 349 350 352 352 351 352 352 351 351 351 351 351 350 350 349 349 348 346 346 346 344 344 343 342 342 341 339 341 341 341 342 342 342 343 343 343 344 344 345 345 345 344 343 341 340
303 304 297 296 294 294 296 297 297 295 300 301 301 300 301 302 303 325 331 315 326 331 333 333 334 338 333 332 335 336 337 338 339 338 337 336 336 336 338 338 339 340 341 342 343 344 345 345 346 346 347 347 349 350 351 351 351 351 352 351 351 351 351 351 350 350 349 348 347 347 346 346 345 345 344 342 340 342 342 341 340 341 341 342 342 343 343 343 343 343 343 343 343 342 341 339 339
303 298 296 294 296 295 298 298 299 301 301 302 301 301 302 301 304 327 333 331 330 330 330 333 334 334 336 336 338 338 337 336 336 334 334 333 334 332 333 335 336 335 338 339 342 343 343 344 345 345 345 347 347 348 349 350 351 352 353 352 352 352 351 351 351 351 347 349 347 346 346 345 345 344 345 342 343 343 343 342 341 341 342 342 341 342 343 343 343 343 341 342 341 340 337 340 341
299 298 297 294 297 298 301 302 301 300 301 303 303 301 302 303 309 323 313 326 328 327 328 330 327 330 333 335 335 335 335 335 334 334 332 331 331 331 331 333 333 334 334 337 340 343 343 342 344 344 345 346 347 348 348 350 351 351 352 352 351 351 352 351 351 350 348 347 346 345 345 346 345 346 347 344 344 344 344 342 341 341 342 342 342 343 341 341 342 341 341 341 339 337 341 341 343
301 298 294 296 299 300 301 302 300 303 304 303 303 300 301 302 303 306 304 320 327 323 326 326 326 325 328 331 332 333 333 333 334 333 332 332 332 332 332 333 333 333 334 336 336 341 342 341 343 344 344 345 346 346 348 349 349 350 350 351 350 351 351 350 350 348 347 347 346 346 346 346 346 348 349 349 346 345 344 344 343 343 342 341 340 342 340 340 339 340 340 340 343 344 345 343 342
299 297 295 297 299 299 300 300 302 301 303 304 303 299 300 301 303 305 312 322 323 325 330 328 327 328 328 330 331 332 332 332 332 333 332 332 334 334 335 336 334 335 337 338 337 339 341 341 342 344 344 346 346 346 347 348 349 349 350 350 349 350 349 349 347 347 346 346 347 347 346 347 347 348 348 348 347 346 345 344 345 345 345 345 340 346 347 345 347 345 347 346 346 345 345 346 346
299 297 299 299 300 299 301 300 300 301 300 301 299 299 301 313 315 311 318 303 306 320 328 332 332 332 330 329 330 331 331 331 331 332 332 332 332 334 337 337 338 338 337 335 336 340 340 341 342 344 343 345 346 346 347 348 349 347 348 349 349 349 348 347 347 346 345 346 347 346 348 347 347 347 348 348 348 348 347 346 346 348 348 349 348 348 347 348 347 346 346 346 346 347 346 347 347
295 298 299 299 300 299 301 301 300 299 300 299 299 301 302 305 313 318 314 306 312 321 331 335 335 334 333 332 331 330 330 330 331 331 332 332 334 335 335 336 335 334 335 335 337 339 340 341 342 345 341 345 346 348 349 348 347 347 348 348 347 347 347 345 345 345 346 346 347 348 347 347 346 347 347 348 348 349 348 347 347 349 350 349 351 348 348 349 347 346 347 347 346 346 345 346 345
298 296 298 298 299 299 301 302 300 299 299 299 301 300 301 301 301 323 318 326 333 334 335 337 337 336 335 330 330 330 330 331 331 333 334 334 335 335 336 336 336 337 336 336 337 339 339 340 341 344 342 345 346 348 348 347 347 347 348 348 347 346 346 345 344 345 346 345 347 349 348 348 346 346 347 346 347 349 348 349 349 348 348 348 350 349 346 347 346 346 348 346 345 345 344 345 345
296 295 298 299 297 300 301 300 300 299 299 300 299 300 300 301 301 319 318 326 333 335 337 337 336 335 333 331 330 330 331 331 331 333 335 334 336 337 336 336 336 336 335 336 337 338 339 339 341 343 344 345 346 347 346 346 346 346 347 347 346 347 346 345 345 345 345 346 347 348 349 348 347 347 347 347 347 348 347 347 348 348 349 348 350 348 347 346 346 346 346 345 346 345 345 346 345
297 297 298 300 299 300 301 300 299 299 300 299 299 299 300 300 311 309 322 328 334 336 337 335 335 333 331 331 331 331 331 331 332 332 333 335 335 334 335 334 335 335 336 336 337 337 339 341 340 341 344 346 346 346 345 345 345 344 346 346 345 347 346 345 345 344 345 347 347 347 347 348 348 348 347 347 348 347 348 349 349 348 347 347 347 347 347 348 346 345 346 346 344 345 345 345 345
299 298 298 298 300 300 301 300 301 300 301 299 299 298 300 301 303 299 326 332 335 335 334 335 333 332 332 332 331 331 331 331 332 333 333 334 334 333 334 335 335 336 337 336 337 337 339 340 339 341 342 346 345 345 345 344 344 345 345 346 346 347 346 345 345 346 346 347 348 349 348 348 348 347 348 348 349 348 348 347 347 347 346 347 348 347 349 349 347 346 346 345 345 345 344 344 343
297 299 299 298 300 301 300 299 300 300 300 300 302 300 301 306 302 300 322 332 334 331 332 332 332 331 331 332 332 333 332 333 333 333 331 332 332 333 333 333 334 336 336 336 337 339 339 340 340 341 343 345 345 344 344 344 343 344 346 345 345 347 347 345 345 347 348 349 348 348 348 348 347 347 347 348 348 348 347 345 346 346 347 348 349 349 348 349 346 345 347 348 348 346 345 345 344
297 299 294 296 298 297 300 299 299 299 299 300 303 300 299 304 302 307 329 332 333 332 331 331 331 331 332 332 333 332 332 333 333 332 333 334 335 335 334 336 336 335 337 338 338 339 339 340 339 340 343 344 344 343 344 344 344 344 344 344 345 346 346 346 346 346 348 347 347 346 347 346 347 347 346 347 348 348 346 346 346 346 348 349 350 349 348 347 346 346 346 347 345 345 344 344 341
298 297 295 294 295 294 298 301 301 298 300 299 302 291 295 300 305 312 331 331 332 330 329 330 330 331 331 332 332 332 334 334 332 332 334 334 335 336 335 337 337 338 337 338 338 338 339 340 340 341 342 342 344 343 343 342 343 344 344 345 345 345 345 346 345 346 346 347 346 346 346 347 346 348 346 346 348 346 346 345 346 346 348 349 348 348 345 346 345 345 344 344 342 342 341 342 340
293 295 295 292 291 291 298 299 300 297 299 298 302 292 295 297 305 320 329 331 329 326 328 330 330 330 330 331 331 331 333 333 332 333 336 336 336 336 336 337 337 337 337 337 337 338 340 340 340 340 342 343 344 342 342 342 343 344 344 343 344 345 345 344 344 345 345 346 347 347 347 347 347 347 347 347 347 346 345 345 345 346 347 348 346 346 346 345 345 344 342 342 341 340 339 339 339
295 291 288 292 290 292 295 300 299 296 298 299 300 292 295 298 299 320 329 329 329 325 327 328 328 329 329 329 330 330 331 332 333 334 335 335 336 336 336 336 337 337 337 337 338 338 339 340 341 340 341 342 343 343 343 343 343 344 345 344 344 344 343 343 343 343 344 345 345 345 346 346 346 346 346 345 346 345 344 345 345 346 346 346 346 345 345 343 343 342 341 341 338 336 337 337 339
293 290 289 288 290 291 292 296 300 300 299 298 299 293 296 297 302 321 328 328 327 326 326 327 328 328 328 328 329 329 329 330 331 333 334 335 335 336 336 337 336 337 337 337 337 338 338 339 340 340 340 341 343 343 344 342 343 344 345 344 344 343 342 340 340 342 343 342 343 344 344 345 344 345 345 346 346 344 345 344 344 345 346 344 344 344 342 342 342 339 339 338 338 336 335 335 337
289 291 289 291 289 290 289 294 297 300 299 295 298 296 298 304 309 322 327 327 326 324 324 326 327 327 328 328 328 329 329 329 329 331 333 334 335 336 337 336 337 337 338 338 339 338 338 339 340 340 341 341 342 343 342 342 342 342 342 340 339 338 337 338 340 342 341 341 341 342 342 344 345 344 344 344 344 344 344 343 343 344 345 344 342 341 340 341 341 340 337 337 336 335 333 333 333
288 288 288 288 291 291 290 291 294 298 298 296 296 296 297 311 315 322 324 327 326 323 324 325 326 327 327 327 328 328 328 328 329 332 333 333 334 335 336 336 336 337 338 339 339 339 338 338 339 340 340 341 341 341 342 342 341 340 339 337 336 336 336 338 341 341 340 339 340 341 342 344 343 343 343 344 343 342 342 342 342 342 342 341 340 339 338 339 339 339 337 335 335 332 331 332 332
289 290 289 289 288 289 290 294 295 297 295 295 295 294 296 311 315 318 323 325 324 324 325 325 326 326 327 327 327 328 328 329 332 332 333 334 334 334 335 335 336 336 337 337 338 338 337 337 338 339 339 340 340 341 340 339 338 337 335 334 335 336 337 337 338 339 338 339 340 341 340 341 341 341 342 342 341 341 341 340 341 340 340 339 338 337 336 337 337 336 335 334 332 331 330 330 330
291 291 290 289 289 290 292 294 295 299 296 295 295 296 297 305 314 317 322 324 323 324 322 323 324 324 325 326 326 327 328 330 333 333 333 333 334 334 334 335 334 335 335 336 336 336 336 335 336 336 338 339 338 338 338 337 335 335 336 335 335 335 335 337 336 337 338 339 339 339 337 338 339 339 340 341 340 338 337 336 336 336 337 337 335 334 335 335 335 335 333 332 330 329 327 329 329
291 290 290 288 290 289 292 293 295 297 296 294 296 296 296 304 314 317 321 321 319 321 322 323 323 325 325 325 326 327 328 331 332 331 331 332 332 333 334 334 334 331 333 334 334 334 335 336 336 336 337 338 338 338 338 338 339 337 337 337 335 334 334 333 333 335 336 337 336 336 336 336 337 337 337 338 337 334 333 333 334 334 334 333 333 333 332 332 333 334 334 330 328 326 324 326 326
289 290 290 289 289 292 292 294 295 295 295 294 294 294 295 304 313 317 319 319 321 322 323 322 323 324 324 325 326 327 327 327 328 329 330 331 332 332 333 333 333 334 333 334 334 334 334 335 335 335 337 337 338 339 339 338 340 339 339 336 335 334 336 337 336 334 334 332 333 332 333 334 333 333 333 333 332 332 332 331 331 332 333 333 331 330 330 330 330 331 332 331 327 326 324 324 324
290 289 289 287 291 289 287 292 293 294 295 294 293 293 295 306 314 315 319 320 320 322 324 324 325 325 324 325 326 326 326 326 326 327 328 330 331 331 332 331 332 332 332 332 333 333 334 333 335 335 335 337 338 339 338 339 339 339 337 334 333 333 331 331 330 332 332 331 329 329 330 330 330 330 329 328 329 330 331 330 331 330 329 330 330 328 328 327 328 327 329 329 329 324 322 320 321
290 289 289 290 289 291 291 291 293 297 301 297 294 294 298 305 307 311 318 323 323 324 325 326 326 326 327 328 328 328 327 327 326 327 328 328 328 329 330 331 332 331 331 331 332 332 331 330 333 335 335 337 337 337 336 336 335 334 333 331 331 329 328 327 327 326 326 327 328 328 325 326 327 327 327 327 327 327 328 328 327 328 328 329 328 326 324 324 324 325 326 326 326 324 319 319 318
289 290 290 290 292 291 291 293 293 291 292 298 294 289 290 302 306 308 314 317 318 322 322 322 324 325 326 325 326 327 328 329 327 327 327 328 328 329 330 330 330 331 330 332 333 332 330 332 335 335 335 335 336 336 336 335 332 330 328 326 324 323 322 324 324 322 322 322 323 324 324 324 324 324 325 326 326 326 326 327 328 328 327 326 325 323 323 323 322 321 322 323 322 322 321 317 315
287 288 292 291 290 292 292 292 292 288 287 295 299 288 286 304 303 308 312 314 316 319 320 321 322 323 324 324 326 326 326 326 328 328 328 328 329 329 329 329 330 330 331 333 333 331 333 334 336 335 334 335 335 335 335 332 332 333 331 328 327 326 323 322 323 323 322 323 322 322 321 322 322 322 323 324 324 323 324 325 326 325 325 324 323 323 321 321 320 320 320 319 318 319 320 316 316
285 292 292 292 290 290 291 292 292 291 295 299 300 295 290 294 301 309 311 311 313 315 317 319 322 323 323 324 325 326 326 327 326 327 328 329 329 329 328 330 330 330 331 333 332 332 333 334 335 334 334 334 335 334 333 334 333 333 331 329 328 325 324 320 321 320 322 322 319 318 319 319 320 321 321 322 322 322 322 322 323 324 322 321 320 319 319 319 319 318 318 317 317 316 317 315 313
289 291 292 291 292 291 291 292 291 291 292 291 296 299 289 292 303 310 311 307 309 311 314 317 320 322 323 324 326 327 327 327 327 327 327 328 328 329 330 330 330 331 332 332 332 332 333 333 333 333 334 334 333 334 333 333 334 334 333 330 328 325 323 322 322 322 320 320 317 318 317 317 318 318 318 319 321 321 321 321 321 321 320 319 319 318 318 317 317 316 315 314 314 313 313 313 311
292 293 293 293 293 291 292 291 291 290 289 286 293 296 287 293 302 305 309 307 306 309 313 316 318 321 322 323 325 327 327 327 328 328 328 328 329 330 331 331 330 331 332 333 334 333 333 332 332 332 332 333 333 333 333 333 333 333 331 330 325 322 322 320 321 319 319 319 316 316 316 316 317 318 319 320 321 320 320 320 319 319 318 318 317 316 316 315 314 313 313 313 313 311 311 310 309
293 292 292 291 291 292 292 292 291 289 283 287 296 296 291 287 297 302 303 304 308 311 313 316 318 320 323 324 325 326 326 327 327 327 328 328 330 331 331 329 330 331 332 333 332 332 333 332 332 331 333 333 333 333 333 333 333 332 329 326 323 321 320 319 318 318 318 317 315 314 314 314 317 318 319 319 319 319 320 319 318 318 318 317 316 315 314 313 312 312 312 311 310 309 308 308 307
292 291 290 290 289 290 289 288 290 283 282 288 293 296 294 284 293 303 309 313 312 312 312 314 316 318 320 323 324 325 327 327 327 327 327 328 328 329 329 328 329 330 331 331 331 332 333 332 332 331 332 333 334 332 331 330 331 330 330 326 322 322 321 319 317 316 317 315 314 312 313 314 314 315 317 317 318 318 318 317 317 316 316 316 314 314 313 312 311 310 310 309 308 308 308 307 306
291 290 290 285 283 284 280 285 280 281 282 287 290 296 290 289 298 304 309 312 313 315 315 316 317 319 320 322 324 325 327 327 326 327 327 327 326 326 327 328 329 328 329 330 331 331 331 331 332 331 330 332 332 329 327 328 331 331 328 325 323 323 322 321 318 317 317 315 313 312 312 313 314 314 314 315 316 317 317 316 316 315 314 314 312 311 310 310 309 309 308 307 307 306 306 306 305
289 288 287 284 281 279 276 281 283 284 285 289 290 297 291 295 297 304 308 312 315 316 318 319 320 320 321 322 324 325 326 327 327 327 327 327 326 327 327 327 328 329 329 330 330 330 331 331 331 331 330 331 329 328 328 328 330 331 329 327 324 324 322 321 319 318 317 315 315 314 314 313 313 313 314 314 316 316 316 316 316 314 313 312 311 310 309 309 308 306 307 305 305 305 306 305 305
289 292 289 287 286 281 277 281 277 281 284 287 291 289 288 288 293 304 310 315 316 318 319 321 321 323 324 324 324 325 326 327 327 327 327 326 327 327 327 328 328 329 329 329 329 330 330 329 329 330 329 329 328 327 328 329 330 331 328 326 324 322 320 320 319 317 315 314 314 314 313 312 312 312 313 314 315 315 315 315 315 313 312 311 310 309 308 308 307 306 305 306 305 306 306 305 305
290 290 292 288 286 292 283 284 286 285 285 285 287 288 293 293 301 305 311 313 315 317 318 319 320 321 322 322 322 323 324 326 327 327 327 327 327 328 327 328 328 328 329 328 329 329 329 329 329 329 328 328 328 328 328 329 329 330 325 322 320 320 320 319 317 316 315 314 313 312 312 311 312 312 312 313 314 314 314 313 312 311 310 309 309 308 307 307 306 305 304 305 304 305 305 304 304
288 289 285 289 295 292 285 284 288 285 286 284 288 291 293 299 300 308 306 308 311 314 315 316 319 320 322 321 322 323 324 325 327 327 326 326 327 327 328 328 328 328 328 328 328 329 330 330 329 328 327 326 328 329 329 327 326 325 322 321 320 319 318 317 315 314 312 313 312 311 310 310 311 311 311 312 312 313 312 312 310 310 310 309 308 307 306 306 306 305 305 304 304 304 304 304 304
289 285 289 292 295 293 289 283 283 284 281 282 287 287 291 291 289 306 306 306 309 311 312 314 318 320 320 321 322 323 324 326 327 327 328 328 327 327 327 328 328 328 328 328 328 330 330 330 329 327 325 324 326 327 326 325 324 322 320 319 320 320 318 316 314 313 312 311 310 310 310 310 310 310 311 312 313 312 311 311 310 309 309 308 307 306 306 305 306 304 305 304 304 305 304 304 304
291 289 295 289 283 283 288 286 279 279 279 282 286 288 293 292 291 301 303 304 308 311 312 313 315 319 320 321 322 324 325 326 325 325 326 326 327 327 327 327 328 328 328 328 328 329 330 329 329 327 324 324 324 324 325 325 323 321 320 319 319 317 315 313 313 312 311 310 309 309 309 309 310 311 312 312 312 311 310 310 309 308 308 307 306 306 306 305 305 304 304 303 304 304 303 303 303
292 295 292 294 292 289 285 286 288 288 281 282 283 287 285 295 295 303 304 307 308 311 313 313 315 318 320 321 321 322 323 324 324 325 325 326 327 327 326 326 327 327 327 327 327 327 327 326 325 324 323 323 323 322 322 322 321 319 318 318 317 315 314 313 312 311 310 309 308 308 308 309 309 311 311 311 310 310 309 309 308 307 307 306 305 305 305 305 305 304 303 303 303 303 302 301 302
288 289 288 289 291 292 292 292 287 286 283 283 283 283 289 297 302 305 307 309 311 312 312 315 317 319 321 322 322 323 324 324 325 325 326 326 326 325 325 326 327 326 326 324 323 324 324 323 322 322 321 320 320 321 321 320 320 318 317 316 315 315 314 313 311 310 309 308 308 308 308 308 308 309 311 310 309 309 309 308 307 307 306 305 305 304 305 304 304 303 303 303 302 302 300 300 301
290 289 288 289 288 286 283 282 288 287 287 282 284 282 293 302 305 307 308 312 313 314 315 316 318 320 321 322 323 323 323 324 325 326 326 327 326 325 325 324 324 323 322 322 322 322 322 322 321 320 320 319 318 319 319 318 318 318 317 315 315 314 312 311 310 309 308 307 307 307 307 308 308 309 310 309 309 309 309 308 307 306 305 304 303 304 304 304 302 302 303 303 302 301 300 300 300
Wind_Speed
10 8 7 2 2 1 1 4 2 1 1 3 1 1 3 1 1 1 4 3 3 2 2 2 2 3 4 2 3 2 1 3 1 4 3 1 2 8 4 8 13 12 14 13 13 14 15 14 14 15 15 15 15 14 15 15 14 13 14 14 14 14 14 14 14 13 14 13 14 14 14 14 14 14 14 14 13 13 12 13 13 13 12 12 11 11 11 10 10 11 11 12 13 14 14 13 13
7 9 6 1 1 1 0 2 4 2 2 3 1 4 2 1 2 4 6 5 3 3 4 3 1 2 2 3 4 4 3 2 4 3 3 2 6 6 6 11 13 14 12 13 13 13 13 14 14 14 15 15 15 15 15 15 14 14 14 14 14 15 14 14 14 14 13 13 14 14 15 14 14 14 14 13 12 12 11 12 12 12 12 11 11 11 11 10 10 10 11 12 13 13 13 13 12
8 7 3 0 1 3 3 2 3 1 2 4 3 3 1 2 1 5 4 1 4 5 5 5 4 0 1 6 3 1 1 1 2 2 2 6 9 6 9 12 13 13 14 11 11 12 11 13 13 14 15 15 15 15 15 15 14 14 15 14 15 15 14 14 14 14 13 13 14 14 14 14 14 14 14 13 12 11 11 11 11 11 11 11 11 10 10 10 10 10 11 12 12 13 13 12 11
6 1 3 3 1 0 1 2 2 2 3 3 5 2 4 1 2 2 5 2 4 5 1 1 3 2 3 7 3 2 2 0 2 5 3 8 4 9 10 13 13 12 11 10 11 11 11 14 14 15 16 16 15 15 15 15 15 15 14 14 15 15 14 14 14 13 13 13 14 14 13 14 14 13 13 12 12 11 11 11 11 11 11 11 11 10 10 10 10 10 11 11 12 12 12 11 10
4 1 2 2 0 1 1 2 0 1 5 3 4 2 4 3 2 3 2 2 6 4 2 1 2 2 2 1 2 3 2 1 2 5 1 5 7 11 12 14 13 12 12 12 12 11 11 16 14 14 15 17 16 15 15 15 15 14 14 14 15 14 14 14 14 14 14 13 13 14 14 14 14 13 12 12 11 11 11 12 11 10 10 10 10 10 9 9 9 9 10 11 11 11 11 10 9
2 1 1 0 1 2 3 2 2 4 3 3 4 4 1 2 4 1 3 5 2 0 2 3 3 4 2 2 3 0 1 0 2 5 6 7 11 13 14 13 12 12 12 12 12 10 12 16 14 14 15 17 17 16 15 15 15 14 14 14 15 15 14 14 14 14 14 14 13 13 13 13 13 12 12 12 11 12 13 11 11 10 9 9 9 9 8 8 8 8 10 10 11 11 11 10 9
2 0 3 2 3 0 3 4 5 5 6 4 5 7 6 3 4 3 2 1 3 4 1 1 3 2 3 2 4 4 3 3 4 3 7 10 12 13 14 12 12 13 13 12 11 11 15 14 14 15 15 16 17 16 15 14 14 14 14 14 14 15 14 14 13 13 13 14 13 13 12 12 12 12 12 12 11 12 12 11 11 10 10 10 10 9 9 8 8 8 9 10 10 10 10 9 8
1 2 1 2 1 1 3 2 6 5 2 5 4 4 6 4 3 4 4 5 3 1 1 1 2 3 2 3 2 4 5 2 2 8 10 12 12 14 13 12 12 13 13 11 11 10 15 14 15 15 16 15 16 16 15 14 14 14 14 14 14 14 14 14 13 13 12 13 13 12 12 12 12 12 11 11 11 11 11 11 11 11 11 10 9 9 9 9 8 8 9 9 9 9 9 9 8
2 2 1 2 4 2 1 5 4 1 5 3 8 5 5 7 4 3 5 1 3 2 1 3 4 4 2 4 1 4 4 4 4 10 13 13 14 14 10 12 13 12 12 12 11 12 14 14 14 14 15 15 15 15 14 14 14 14 14 14 14 12 13 14 13 13 12 11 12 11 12 11 11 11 11 10 10 11 11 12 12 11 11 10 9 10 10 9 9 9 10 10 10 9 9 8 7
2 2 4 1 1 7 4 3 4 5 7 4 6 7 2 2 1 1 5 6 3 2 2 1 2 7 2 3 1 2 3 3 8 11 13 14 14 13 12 12 13 15 13 12 12 12 12 16 13 12 12 13 13 13 13 12 12 13 13 13 12 11 12 13 11 12 11 11 11 11 11 10 10 9 9 10 10 10 11 11 12 11 10 9 9 9 9 9 9 9 9 9 9 9 8 7 7
4 3 2 4 4 7 8 5 6 2 5 4 6 9 10 5 2 4 4 4 2 5 2 2 3 5 2 2 2 2 2 5 9 12 13 14 13 13 12 11 12 13 13 14 12 12 12 13 14 11 11 12 11 11 11 12 11 11 10 10 10 12 13 12 11 12 12 11 12 12 11 10 9 8 8 8 8 8 8 9 10 10 10 9 9 9 9 9 8 8 8 8 8 8 7 6 5
4 4 3 7 8 9 7 9 8 7 4 1 5 6 2 4 2 2 4 4 1 3 5 4 2 6 2 1 1 2 5 6 8 11 12 13 12 13 12 10 12 12 12 13 12 11 12 12 12 13 11 11 10 9 9 11 10 10 10 11 11 12 12 11 11 11 11 12 11 11 11 10 9 8 8 8 8 8 8 9 9 9 9 9 8 8 8 8 8 8 8 8 8 7 6 5 4
5 3 5 5 6 6 4 8 7 5 5 7 7 5 2 4 5 7 3 2 2 2 5 7 2 5 2 1 2 4 7 6 9 11 12 12 12 11 11 11 12 12 13 13 12 13 13 11 11 12 13 13 10 9 9 9 10 10 10 10 11 14 14 13 13 12 11 12 11 10 11 10 9 8 7 7 7 7 7 8 8 8 8 8 8 7 7 7 7 7 7 7 7 7 6 4 3
5 4 7 10 4 6 8 5 2 8 7 4 7 6 1 2 2 2 3 3 3 3 2 3 5 5 4 3 2 6 7 9 11 12 12 12 11 11 12 11 12 12 13 13 13 13 12 13 11 12 13 13 12 11 12 12 12 12 10 10 11 13 13 13 12 11 12 11 11 11 10 10 9 8 7 6 6 6 7 7 7 7 7 6 6 7 6 6 6 6 6 7 7 6 6 5 4
5 2 4 2 4 6 7 10 9 7 8 7 5 6 5 1 5 3 3 4 1 2 3 1 1 4 3 9 5 11 11 12 12 12 12 12 12 11 12 11 12 12 12 13 13 13 13 13 13 12 13 13 12 9 9 11 13 13 11 12 12 12 13 13 13 12 11 11 11 10 10 10 9 8 7 6 6 6 7 7 7 7 6 5 5 5 6 5 6 6 6 6 6 6 5 4 3
2 4 1 7 8 10 6 10 5 9 6 7 3 2 2 3 3 3 2 2 4 2 3 2 0 3 1 9 4 14 14 14 13 14 13 13 12 11 11 12 12 12 11 13 13 13 13 14 12 11 12 12 11 9 9 11 13 13 12 12 13 13 13 13 12 11 11 10 10 10 10 9 9 8 8 6 7 6 5 5 7 6 5 5 5 5 5 5 6 6 6 5 5 4 3 3 2
2 2 6 7 11 11 7 9 9 10 3 7 3 4 5 2 1 2 2 1 5 2 3 3 4 3 4 5 7 15 16 15 15 15 14 13 11 11 10 10 10 10 9 12 12 12 14 13 13 11 12 13 12 10 10 11 11 13 12 13 13 13 13 12 12 11 10 10 9 10 8 6 6 6 5 5 6 5 5 6 6 6 5 5 4 5 5 5 5 5 5 5 4 4 4 1 1
5 8 10 12 8 14 11 11 11 4 9 7 7 7 9 6 4 6 5 8 8 4 3 2 5 5 2 5 12 16 17 17 17 18 15 14 12 12 11 11 12 12 11 10 9 11 12 12 12 12 11 12 12 10 9 9 10 11 11 11 11 11 11 12 9 8 8 7 9 6 5 5 5 5 5 5 5 5 5 5 5 5 4 4 4 4 5 5 4 5 5 5 4 5 4 2 1
9 4 8 15 10 8 12 11 11 7 8 6 9 9 10 8 9 7 4 4 5 5 2 2 4 6 7 9 13 17 17 17 18 18 19 18 15 16 14 12 13 11 12 11 11 12 11 11 12 11 11 11 12 10 8 8 10 9 10 10 9 11 10 10 8 7 6 6 5 4 4 3 5 6 5 4 5 6 6 6 6 5 4 4 4 5 4 4 4 4 3 3 4 3 1 2 2
8 7 12 12 6 7 11 10 10 9 8 11 7 4 9 4 5 6 6 7 5 5 5 3 5 7 9 13 15 16 17 18 18 19 19 18 15 16 15 14 12 13 13 12 12 11 11 11 12 11 11 12 11 9 9 8 9 8 7 8 8 8 9 7 7 6 5 5 4 4 4 5 5 4 7 9 6 4 5 6 6 5 4 3 4 2 2 2 1 2 1 1 1 2 2 2 2
5 7 10 5 7 8 10 8 10 10 7 8 6 4 8 5 5 7 8 7 6 5 8 9 12 14 14 16 17 16 17 18 18 18 18 18 14 12 11 11 11 11 10 9 9 11 12 10 10 10 11 9 11 9 9 9 9 8 8 7 7 7 7 7 6 5 5 5 4 3 4 4 4 5 5 5 4 3 2 2 2 1 1 1 1 1 0 1 1 2 2 2 3 3 3 3 3
4 11 2 5 8 12 6 8 5 6 1 2 5 9 7 5 3 6 11 8 5 6 9 10 10 16 18 18 18 16 17 18 19 19 19 18 17 15 9 7 7 7 9 9 10 10 11 10 10 9 10 11 10 9 9 9 9 8 8 7 7 7 6 6 6 5 5 4 2 3 3 4 4 4 4 4 5 4 3 2 2 1 1 1 1 1 1 1 1 2 2 3 3 2 2 3 3
9 5 5 3 7 11 3 6 5 6 5 7 6 4 5 6 4 1 5 5 1 0 3 9 11 16 16 16 18 18 18 20 20 21 19 18 14 11 9 7 8 9 9 8 9 9 10 10 10 8 11 10 11 8 9 8 7 7 6 6 7 6 6 6 5 5 4 4 2 2 2 2 3 3 4 4 4 3 3 2 2 2 2 2 1 1 2 2 2 2 2 2 2 2 3 3 2
8 6 3 7 3 9 3 7 5 6 5 5 2 2 5 6 8 3 4 1 3 4 2 8 10 13 15 17 18 19 20 20 20 16 14 14 15 13 10 9 7 7 8 9 10 10 10 11 10 8 10 9 9 9 8 8 7 7 7 7 6 6 5 5 5 5 4 4 2 2 1 2 3 3 3 3 4 3 2 2 3 3 2 2 2 1 2 2 2 2 2 2 2 3 3 3 3
12 10 4 1 3 6 5 2 2 4 4 3 1 3 4 4 1 5 4 1 2 3 6 10 12 14 15 17 18 17 17 17 16 15 9 7 6 5 8 7 9 9 10 10 9 10 10 10 10 9 9 10 9 8 8 7 7 7 7 6 5 6 5 4 4 4 4 3 2 1 1 1 1 1 2 3 2 2 2 2 2 2 2 2 1 2 2 2 2 2 2 2 2 3 2 3 3
13 8 5 2 4 5 7 4 3 3 2 4 4 6 3 3 3 6 2 1 2 6 9 11 14 15 17 17 17 17 17 18 16 13 12 7 3 6 9 10 10 11 10 10 10 9 9 11 11 12 7 10 9 8 7 7 7 6 7 6 5 6 4 4 4 4 4 2 2 2 1 1 1 1 1 1 1 2 2 2 2 2 2 2 1 2 2 2 2 2 2 2 3 2 2 3 2
5 10 9 8 4 6 7 11 7 4 2 4 8 3 6 3 7 7 3 3 6 9 10 11 15 16 17 15 15 15 17 17 17 11 10 8 7 7 9 10 11 9 10 10 10 9 9 11 11 11 9 7 9 8 7 7 7 6 6 6 5 5 4 4 4 4 4 3 2 2 1 1 1 1 0 0 1 2 2 2 1 1 2 2 2 2 2 2 2 3 3 3 3 3 3 2 3
1 7 12 12 11 7 3 3 6 2 5 8 4 4 1 1 6 7 7 8 10 12 12 13 14 14 15 16 14 13 14 15 14 13 15 13 9 8 10 10 11 10 10 10 9 9 10 11 11 10 11 5 10 8 7 6 7 6 6 5 5 4 4 4 4 3 3 2 2 1 2 1 1 1 1 1 1 2 2 2 1 2 2 3 2 2 2 2 2 2 2 2 2 2 2 2 2
3 6 6 10 11 14 14 9 5 7 8 8 9 6 11 8 8 6 9 11 13 12 13 14 15 14 14 14 13 13 14 14 13 13 14 9 7 7 9 10 9 10 8 9 9 10 10 11 10 11 10 5 9 8 6 7 6 6 5 4 5 4 4 4 4 3 1 1 1 2 2 3 3 3 2 2 1 1 2 2 2 2 3 3 3 2 3 2 2 2 2 1 2 1 2 3 3
5 4 4 5 9 13 17 10 7 8 5 9 11 10 14 12 9 5 12 12 13 13 13 14 13 13 13 14 14 13 13 13 15 14 13 13 8 7 8 9 10 8 7 7 9 10 9 8 8 9 10 7 8 7 6 6 6 5 5 5 5 4 4 4 3 2 2 2 3 3 4 4 4 3 3 3 1 2 2 2 2 3 3 3 3 2 3 2 2 2 2 2 3 3 4 4 4
11 5 4 9 8 8 13 14 14 11 6 9 13 14 9 6 9 7 12 14 16 14 14 14 14 14 14 14 14 13 12 12 14 13 13 12 9 9 10 9 10 9 7 7 10 10 10 8 8 8 10 10 9 8 8 6 6 5 5 5 5 5 4 3 3 3 3 4 4 4 4 4 4 4 3 3 2 2 2 2 3 3 3 3 3 3 3 3 3 3 3 3 3 4 4 4 4
8 8 12 11 12 3 8 15 15 17 5 8 13 11 10 5 8 10 14 14 15 15 15 16 15 15 15 14 15 14 12 12 12 13 12 11 10 9 10 10 10 9 9 8 9 10 10 9 9 9 11 9 8 8 7 6 6 5 4 5 4 5 4 3 3 3 4 4 3 3 3 3 3 4 4 4 3 3 3 3 3 4 4 3 3 3 3 3 3 4 4 4 3 4 3 4 3
10 15 10 13 12 7 5 10 15 17 10 7 17 5 4 7 7 11 14 16 16 15 15 16 17 18 15 14 14 12 12 13 13 14 13 11 10 9 9 10 9 9 9 9 10 10 9 10 9 10 10 9 9 8 7 7 6 5 5 4 4 4 4 4 5 3 4 4 4 3 3 3 3 3 4 3 4 4 3 4 4 4 3 3 3 3 4 3 3 3 4 4 3 3 4 5 4
12 13 11 8 15 10 9 7 5 16 16 12 14 10 3 3 11 13 14 16 17 15 16 17 16 15 17 14 14 13 14 13 14 14 13 12 8 9 7 8 9 9 8 9 10 10 10 9 9 8 8 9 8 8 7 7 6 6 4 4 5 5 5 3 3 5 5 4 4 4 4 3 3 3 4 5 4 5 5 5 5 3 3 3 4 4 4 3 3 3 4 4 4 4 4 5 5
12 13 10 4 8 13 12 8 9 14 19 17 14 15 10 2 7 14 16 17 17 17 17 18 17 16 16 14 14 15 14 14 13 12 11 10 9 8 7 8 8 8 7 8 10 9 9 8 8 9 9 9 9 8 8 7 7 6 6 7 7 6 5 4 4 5 5 4 4 5 4 3 3 4 5 5 5 6 6 5 5 3 3 4 4 4 4 4 4 3 4 4 4 5 4 4 4
6 9 7 6 9 12 14 9 7 18 17 16 17 15 16 6 9 11 13 17 18 17 15 12 13 13 14 14 14 13 14 15 11 10 10 10 9 8 8 8 8 8 8 7 9 10 10 10 9 9 8 9 9 9 8 8 7 7 7 6 6 4 4 5 4 4 4 5 5 3 3 3 4 5 5 5 6 6 6 5 4 3 3 3 4 4 3 3 3 4 5 4 4 4 5 5 5
11 7 11 9 9 6 3 10 7 14 14 17 17 17 16 12 12 12 13 14 15 14 15 13 13 13 13 12 13 14 16 14 9 10 9 9 10 8 8 8 8 9 9 10 10 10 11 10 11 10 8 9 10 9 9 8 9 8 7 7 5 5 6 6 5 5 5 5 5 4 4 4 5 6 6 6 6 5 4 4 4 4 3 4 4 4 3 4 3 4 4 4 5 4 5 6 5
4 11 12 8 10 9 11 13 7 10 10 10 10 15 16 13 12 13 13 15 16 15 16 16 17 15 13 14 15 16 15 8 9 9 8 9 9 10 8 8 9 10 9 11 11 11 11 12 11 10 9 9 10 10 9 9 8 8 7 7 6 6 6 6 6 6 6 7 7 4 4 5 6 6 5 5 5 5 5 4 4 4 3 4 4 4 5 4 4 3 2 4 4 5 5 6 6
2 8 11 10 9 4 5 9 8 8 10 6 10 14 13 12 12 12 15 16 15 16 18 18 18 18 15 15 16 15 11 10 9 9 10 10 10 10 9 8 9 10 10 12 11 11 12 11 10 10 9 9 9 9 8 8 7 6 6 6 6 5 4 3 4 6 6 6 5 4 4 5 5 5 5 5 5 5 5 5 4 3 4 3 4 4 4 5 5 5 4 2 3 4 5 6 7
5 2 10 12 9 11 9 9 7 8 8 4 9 13 6 3 8 12 13 15 13 15 17 16 15 17 19 19 16 13 13 11 12 11 11 10 10 9 10 9 9 10 10 10 11 12 11 10 10 10 10 9 8 8 8 8 8 8 8 8 5 2 4 7 5 4 4 7 6 4 5 5 5 6 6 6 5 5 5 5 4 4 4 3 3 4 5 5 5 5 4 2 1 3 5 6 7
9 5 4 8 10 12 5 8 6 7 2 2 10 9 5 7 9 9 11 12 11 13 14 14 14 14 14 10 10 12 14 14 12 11 11 11 12 10 10 10 10 10 9 10 10 9 7 9 10 11 10 9 8 9 11 11 10 10 10 9 8 8 8 5 5 4 5 4 5 6 5 5 5 6 6 6 6 6 5 5 5 4 4 4 4 5 5 5 5 4 4 4 5 3 5 5 7
8 9 7 4 9 10 3 9 12 8 8 7 14 5 10 7 10 11 10 9 13 12 14 15 17 15 13 14 14 12 11 12 12 12 12 11 11 10 10 11 11 10 10 9 9 10 12 12 10 10 8 9 10 11 13 10 11 14 13 11 8 7 7 5 4 5 3 2 5 5 6 5 5 6 6 6 6 5 5 5 5 5 5 5 5 5 5 5 6 5 5 5 6 6 4 5 6
10 7 11 5 3 9 8 8 11 10 12 11 10 12 3 3 10 11 12 12 12 11 13 15 16 16 15 13 11 11 13 11 11 11 11 12 12 11 11 11 12 11 10 10 9 11 12 12 11 10 10 9 11 12 14 12 12 12 12 11 10 10 10 6 5 5 5 2 5 5 5 5 6 6 6 6 5 5 5 5 6 6 6 6 5 5 6 6 5 6 6 6 5 4 3 4 4
13 3 8 9 4 7 7 9 10 1 5 4 9 8 6 5 9 12 13 15 16 16 15 14 11 13 16 15 14 13 13 12 12 13 13 12 13 13 12 12 11 11 11 11 9 9 12 12 12 12 10 10 9 11 13 12 11 10 10 9 7 7 8 9 7 7 6 4 6 5 4 5 6 6 6 6 6 5 6 6 6 6 7 7 6 6 5 5 5 6 8 7 6 6 6 5 4
6 4 8 9 10 5 4 6 5 2 7 9 10 4 7 6 4 12 15 16 17 18 17 17 17 19 19 18 17 15 13 13 13 12 13 13 13 12 11 12 11 12 12 12 10 9 10 11 12 11 11 11 10 12 11 10 9 9 8 10 8 5 7 8 8 7 8 6 8 5 5 6 6 6 6 6 6 6 6 6 7 7 7 7 6 6 6 7 8 8 8 7 7 7 6 5 5
6 6 3 2 4 3 5 2 4 3 6 12 13 11 11 3 4 10 14 15 17 18 18 18 19 19 21 20 19 16 12 13 13 13 12 12 12 12 11 12 12 11 11 12 12 11 10 11 11 12 11 10 10 12 10 10 9 7 6 7 8 8 9 9 8 7 6 6 7 6 5 5 5 5 6 6 6 7 7 7 7 8 7 6 6 7 7 8 8 9 8 7 7 8 6 7 7
7 9 8 5 3 4 1 1 1 2 5 10 11 13 10 6 9 12 15 16 15 13 13 14 16 18 19 19 19 17 14 12 12 12 12 12 13 11 11 12 13 12 10 12 11 12 12 11 11 12 11 9 10 10 11 12 9 9 10 12 11 12 11 12 10 7 6 6 7 6 5 4 4 5 5 5 6 7 8 7 7 7 7 6 6 7 7 7 7 7 7 9 9 8 7 7 8
11 8 10 6 3 3 4 1 1 5 9 6 10 15 10 12 8 10 11 6 16 14 15 18 19 21 20 19 18 19 16 12 12 13 12 13 13 13 12 12 14 13 12 12 11 12 10 11 11 11 10 10 9 8 6 6 8 11 10 11 12 11 10 10 11 10 7 9 8 6 4 5 5 5 5 5 6 7 6 7 8 8 7 6 7 6 7 7 6 7 7 7 7 7 7 7 7
12 10 10 10 7 4 5 5 7 10 8 3 4 13 4 16 1 10 15 14 15 18 16 18 21 20 20 18 18 16 15 14 13 12 12 13 13 13 14 14 14 15 14 14 11 11 10 11 12 11 10 10 9 9 12 15 12 13 13 11 10 9 8 9 9 10 8 8 7 7 5 5 5 5 5 6 6 7 6 7 7 6 6 7 7 7 7 8 7 7 7 7 7 8 7 7 7
15 15 14 13 10 8 7 11 2 3 3 2 6 12 11 3 4 9 17 19 18 18 18 16 18 18 17 17 16 15 13 11 11 12 12 12 13 11 13 14 15 13 14 14 13 11 10 9 10 11 11 11 11 11 10 11 10 11 13 12 10 8 9 7 7 8 8 7 6 7 6 5 5 5 6 6 5 6 6 7 7 8 8 8 8 8 8 8 8 7 7 8 8 7 7 8 8
15 12 14 12 8 4 6 7 8 8 7 4 3 8 5 11 3 12 16 18 17 17 17 14 8 5 8 12 15 16 14 12 13 12 11 13 13 15 13 14 13 14 14 13 12 12 10 9 9 11 11 11 13 11 10 11 9 12 11 9 9 8 8 7 5 5 8 9 6 7 6 5 6 6 6 6 7 7 8 8 8 8 8 8 8 8 7 8 7 7 7 8 7 7 7 7 7
4 2 1 4 9 2 2 1 4 6 6 5 6 3 1 5 2 4 1 6 12 10 7 5 5 7 9 11 16 17 17 16 15 15 14 14 15 14 14 13 14 13 14 11 12 12 11 10 10 11 12 12 13 14 11 9 8 10 13 11 9 7 7 6 6 5 6 6 7 7 6 5 6 7 6 7 7 7 8 8 8 9 8 8 8 8 8 7 7 8 7 7 8 5 7 8 7
11 5 13 10 4 3 3 2 4 3 2 5 1 3 3 2 1 4 4 6 8 11 11 9 8 11 12 13 16 18 17 16 15 16 14 15 14 13 14 15 13 13 12 12 12 12 13 12 10 10 11 10 11 13 11 8 9 12 10 10 10 9 8 10 9 8 8 7 7 6 6 6 7 7 7 7 7 8 8 9 9 8 8 8 8 8 8 8 8 8 7 8 8 7 7 7 6
7 9 7 6 3 4 1 4 0 3 8 3 3 9 5 7 6 1 5 9 9 11 14 14 12 12 14 14 16 18 17 17 15 14 15 15 16 15 14 13 14 14 14 14 14 13 12 11 12 11 10 10 10 11 10 11 11 11 12 10 10 10 8 8 8 11 9 8 7 6 7 7 7 6 7 7 8 9 9 9 9 8 8 8 8 8 8 8 8 7 7 7 7 7 7 6 6
8 9 3 11 7 8 1 1 4 6 6 3 4 2 2 7 5 4 6 11 11 11 12 14 14 15 16 15 17 17 17 15 13 15 14 15 15 16 15 14 14 15 14 13 13 10 10 11 12 12 11 11 11 9 8 9 10 10 10 11 10 10 9 9 8 8 8 9 8 7 7 7 7 8 8 8 8 9 9 8 9 8 8 8 8 8 8 8 8 8 7 7 7 7 7 8 7
4 5 8 2 1 6 4 1 1 3 2 2 4 3 5 7 5 10 11 13 15 13 13 16 19 20 17 15 17 19 18 14 15 16 15 16 15 16 15 16 16 15 14 13 12 11 13 12 11 10 12 10 8 9 9 8 8 10 10 9 9 9 10 10 10 11 9 9 8 9 9 8 7 7 8 9 8 9 9 9 8 9 9 8 9 8 8 8 7 7 7 7 7 8 9 9 8
9 11 9 4 2 2 3 1 2 1 2 4 2 3 3 4 6 7 12 15 15 17 17 16 17 18 16 17 19 19 18 16 16 15 16 17 15 14 14 14 14 13 12 12 12 13 13 11 10 12 14 13 9 8 9 7 8 9 13 12 10 10 11 10 10 9 9 8 8 8 7 7 7 7 9 9 9 10 10 10 10 9 9 9 9 8 7 7 8 8 7 8 8 9 10 9 9
9 8 7 6 9 7 11 9 3 1 1 2 4 5 1 5 1 9 12 10 13 18 19 17 18 17 16 15 18 19 18 16 17 17 16 16 15 14 13 13 13 13 13 14 12 12 13 12 11 10 11 11 9 8 9 8 8 9 10 13 12 9 9 9 10 9 9 9 8 7 7 7 8 8 8 9 10 8 9 10 10 10 10 10 9 9 8 8 8 8 8 6 7 9 10 10 9
Wind_Direction
327 324 317 4 173 160 206 359 284 20 352 298 325 157 77 247 206 335 46 311 29 348 283 226 235 180 268 5 323 78 75 243 207 249 355 81 85 152 154 156 145 154 152 157 160 161 160 152 148 147 146 149 147 145 147 147 147 146 142 139 134 131 130 129 128 129 130 127 125 124 121 119 116 115 114 114 114 113 111 109 108 106 105 106 109 107 107 103 104 100 102 104 108 108 107 107 107
323 322 306 272 209 255 359 336 88 302 360 320 272 121 157 156 286 24 10 19 1 339 292 264 165 278 40 101 102 122 126 352 343 25 51 125 143 154 161 154 151 155 152 156 160 160 160 151 146 145 145 147 147 146 149 149 150 148 143 138 135 133 131 129 130 131 131 131 129 126 124 120 118 117 116 117 117 114 110 107 107 109 107 105 107 109 108 109 108 106 104 108 111 111 109 111 112
327 334 318 45 77 43 123 325 276 85 349 293 279 126 113 150 29 350 2 7 319 276 291 306 299 126 129 163 200 256 9 57 111 115 81 149 148 168 163 153 153 154 154 155 157 160 158 149 143 144 146 147 147 150 151 152 152 149 143 138 135 133 132 132 132 133 135 134 131 128 125 123 121 121 121 121 120 118 112 108 106 105 107 107 109 107 102 103 103 105 106 110 113 113 112 114 112
313 224 335 322 295 74 64 39 149 199 253 277 304 160 191 145 222 283 314 28 268 266 320 338 326 102 312 305 13 105 87 182 236 155 162 182 185 149 159 157 150 152 153 153 156 157 159 145 143 146 148 149 151 152 155 155 153 148 142 139 135 133 134 135 136 138 137 136 133 129 125 124 122 122 123 121 116 109 110 107 98 92 88 87 90 93 106 108 108 107 108 112 116 115 116 115 110
324 294 319 71 259 101 95 50 122 168 243 169 271 126 191 206 258 213 295 329 267 227 218 114 241 100 26 9 34 303 73 42 228 196 158 162 124 150 153 153 152 153 154 154 154 155 153 141 144 147 152 154 154 154 158 156 152 146 142 139 136 135 136 137 139 140 138 137 134 131 126 124 123 122 121 120 121 116 104 98 96 94 86 82 79 75 73 87 95 107 111 112 114 115 115 115 111
227 281 3 274 300 75 101 182 170 215 245 130 255 292 145 268 281 159 172 274 316 165 192 187 336 302 232 27 356 9 140 158 111 194 172 166 150 152 152 151 153 155 155 154 153 156 154 141 146 149 157 157 155 156 158 154 149 146 144 142 139 137 137 138 139 140 139 136 134 130 127 126 124 122 122 122 120 114 108 103 101 98 94 89 87 85 89 90 94 106 114 111 109 110 111 109 105
360 77 5 74 99 289 250 224 225 226 240 163 267 273 287 305 288 332 117 308 111 88 227 176 183 141 228 137 126 72 302 256 190 167 179 150 147 153 152 153 152 153 155 155 156 157 154 146 150 155 162 159 155 157 157 152 149 147 146 142 140 140 139 139 140 140 138 135 132 130 129 126 125 124 124 123 119 115 108 105 102 98 89 83 81 88 93 93 97 104 106 106 108 106 105 102 99
105 241 3 272 128 298 195 215 225 172 233 200 287 275 272 277 318 319 341 338 2 339 9 131 228 279 297 108 257 63 33 332 329 125 141 145 149 151 154 152 153 151 154 154 157 159 146 151 155 160 162 159 155 156 154 151 150 149 146 144 143 142 141 139 139 138 137 135 132 130 129 127 124 123 121 122 119 114 111 109 106 99 91 87 85 85 87 92 97 108 108 109 110 109 106 100 95
360 95 301 199 208 42 143 208 227 55 307 259 262 226 280 277 292 303 305 43 288 205 236 180 179 285 129 173 200 34 40 14 118 129 141 145 150 153 154 157 155 152 154 158 159 161 157 156 161 162 160 156 154 155 153 153 153 150 150 149 145 143 140 138 139 138 136 133 130 130 128 126 125 127 126 123 122 120 115 111 106 98 96 93 89 89 95 97 97 107 114 113 109 105 100 97 96
85 291 204 184 89 223 217 199 218 205 221 246 264 274 241 234 113 210 306 303 325 307 307 49 198 262 106 224 114 82 13 81 130 136 144 148 151 152 154 158 155 155 156 160 162 166 163 160 160 157 155 150 154 158 156 153 155 154 153 149 144 140 137 134 133 134 133 131 129 126 124 122 121 121 122 123 121 117 114 110 102 102 99 95 88 86 86 91 96 101 106 104 101 96 93 97 96
179 49 23 200 191 228 214 222 217 161 230 265 275 251 250 262 266 274 247 283 265 285 315 174 225 208 180 79 37 343 217 136 143 145 150 150 152 154 154 157 156 160 160 161 163 164 162 161 154 150 150 149 152 161 158 153 156 154 149 146 142 139 134 128 132 134 132 131 128 124 122 120 120 122 123 123 120 118 117 110 106 104 100 94 90 90 91 94 101 100 104 106 105 102 98 97 99
172 176 158 220 221 220 209 235 216 217 225 284 248 264 176 179 145 253 233 267 137 261 263 153 326 133 164 110 143 147 139 154 152 147 152 153 156 156 154 156 157 162 162 160 161 161 160 159 158 153 148 148 153 160 155 153 154 149 149 147 142 134 128 128 132 133 134 132 124 122 120 118 112 108 100 98 104 109 106 108 106 105 103 101 95 91 92 97 102 105 107 105 103 102 101 102 102
216 129 178 221 211 211 187 220 224 217 221 214 230 244 116 158 218 247 277 243 192 290 285 209 88 184 221 165 76 175 181 160 153 155 155 162 157 158 157 155 157 158 160 162 161 159 158 161 159 162 154 147 154 156 156 156 154 149 152 148 141 137 133 133 135 135 131 124 118 117 114 113 112 113 112 115 114 115 115 114 110 107 102 98 96 95 90 88 91 94 93 95 94 95 95 88 77
209 195 153 229 67 209 194 213 160 220 222 177 219 247 153 198 187 214 145 254 220 228 2 319 187 182 95 106 192 196 196 165 157 161 162 160 159 158 156 153 157 159 161 162 162 161 162 164 161 161 161 162 162 163 167 164 160 153 152 146 141 135 133 133 134 132 128 123 118 116 114 111 109 108 106 112 122 127 125 122 114 111 102 95 95 92 87 80 77 77 73 76 81 81 83 75 56
214 141 202 262 191 196 192 219 201 212 243 169 199 217 219 221 132 136 237 273 345 293 341 109 277 177 212 183 208 199 181 168 159 159 159 159 157 154 153 156 159 162 163 165 162 164 165 165 165 164 167 164 164 168 173 166 162 156 153 147 141 136 133 131 133 129 126 123 119 119 115 112 107 105 104 107 111 125 129 120 116 110 99 91 90 87 83 72 63 61 58 57 64 71 78 74 66
157 158 192 212 214 198 185 214 156 221 225 180 195 144 87 158 143 186 211 275 102 85 312 144 71 295 95 211 217 180 169 162 159 157 158 156 154 153 157 161 163 165 166 169 168 167 165 166 166 167 167 162 165 168 176 165 165 159 157 149 145 140 135 132 130 129 126 123 122 123 121 117 113 108 109 106 97 104 120 123 116 112 100 91 79 74 74 60 53 51 50 49 51 55 55 63 66
98 240 210 217 228 193 164 196 157 223 141 209 176 178 200 165 45 59 10 163 143 43 53 15 311 308 239 231 144 156 159 158 156 159 158 158 160 163 165 164 168 172 175 175 170 167 168 168 168 167 168 162 165 170 173 165 162 161 159 150 149 141 137 135 133 129 129 127 129 114 104 105 106 105 101 95 108 103 110 115 116 112 107 93 78 66 60 56 49 46 38 32 26 18 12 334 115
163 204 215 222 206 195 162 186 183 157 205 197 205 194 196 197 178 140 132 71 91 97 86 49 49 53 55 121 142 145 156 157 163 164 166 166 170 169 171 174 178 182 178 173 174 171 170 171 170 170 166 163 167 170 167 165 161 169 162 157 153 147 142 140 142 138 134 130 116 120 117 117 118 110 104 98 96 107 110 105 109 108 100 97 86 69 55 49 40 38 24 17 8 1 341 329 27
190 187 214 229 176 207 153 181 182 151 209 190 202 187 191 206 153 177 189 164 142 113 74 110 79 79 102 125 138 153 162 163 169 172 171 173 176 174 176 179 186 179 179 178 178 179 177 172 171 175 172 166 169 170 162 166 166 172 165 159 151 153 147 146 142 139 136 128 122 119 121 119 118 108 104 115 98 90 90 104 100 93 87 78 80 65 49 24 25 24 21 20 360 301 292 23 15
213 191 213 225 151 173 200 169 189 212 166 210 189 177 192 176 184 138 210 173 182 178 156 162 171 160 156 152 161 164 170 171 175 177 179 180 178 176 179 182 182 183 182 181 178 180 178 176 174 174 173 171 172 169 164 168 169 173 166 159 155 153 145 145 142 141 134 128 129 126 123 124 119 116 99 119 113 99 92 89 83 85 82 75 48 112 107 82 335 184 116 309 207 46 46 38 25
156 218 226 183 153 182 202 204 191 203 197 202 196 108 182 179 177 180 143 143 212 231 209 180 190 179 172 168 169 170 175 175 180 184 183 184 182 183 188 183 178 176 176 168 173 179 180 175 172 170 171 177 175 168 165 171 169 173 166 157 156 152 146 146 145 141 136 138 139 138 127 127 123 110 108 100 88 96 102 108 125 101 86 109 181 85 99 106 207 74 110 125 61 48 45 41 14
134 223 191 133 165 211 167 201 203 205 214 214 114 159 182 105 141 167 164 221 205 211 216 220 185 172 169 172 174 175 180 181 185 187 190 187 185 191 185 167 162 160 169 173 176 175 177 170 172 167 178 179 177 168 170 165 168 170 163 159 158 149 146 150 149 145 144 148 147 133 126 130 125 114 109 95 93 92 89 87 88 103 114 99 176 93 86 88 95 85 81 71 63 58 54 37 23
224 219 223 173 181 199 160 182 201 193 180 195 179 184 108 164 133 231 205 208 111 60 278 194 179 171 169 171 171 178 187 190 189 191 190 190 192 193 181 168 164 171 174 174 172 172 172 167 173 174 176 178 178 172 169 166 168 163 160 163 158 152 154 155 154 148 146 146 140 140 151 131 118 111 103 97 92 88 84 55 70 69 71 80 66 85 85 71 67 81 72 70 68 55 41 33 22
246 221 104 207 185 201 158 191 168 188 194 191 138 102 168 138 182 144 210 142 290 279 260 173 163 158 165 171 184 185 188 192 194 194 194 192 190 186 176 167 164 167 174 171 175 173 175 169 175 193 168 179 180 174 168 168 161 163 164 162 163 154 159 160 153 149 144 149 157 151 166 131 121 113 96 94 90 91 73 65 85 91 80 66 42 39 87 76 70 60 55 60 42 42 32 30 21
217 238 172 198 198 214 233 176 155 156 193 102 153 207 168 175 180 143 208 256 278 243 182 156 160 165 172 179 187 191 193 196 197 198 198 199 191 163 173 162 172 177 179 174 173 173 175 172 175 197 160 186 176 170 170 171 163 166 167 163 158 160 162 156 148 149 153 149 160 186 183 167 126 99 96 92 94 94 98 94 92 89 81 79 63 70 50 59 58 34 32 29 41 29 34 31 15
220 214 154 199 200 217 237 246 202 148 148 174 184 214 248 227 123 219 156 171 195 160 157 163 167 172 181 189 190 192 194 197 197 198 198 198 166 159 175 182 179 182 182 174 169 176 172 176 180 194 173 180 172 165 169 168 167 174 172 162 165 163 156 154 155 159 159 167 162 180 208 303 315 359 97 104 141 118 130 135 121 100 97 89 96 86 58 36 22 21 25 31 36 34 29 45 356
174 202 206 208 202 197 214 229 218 166 195 174 205 151 219 157 174 230 157 161 154 156 163 173 178 185 189 191 192 196 196 198 198 195 193 197 189 186 181 187 189 186 179 175 172 174 172 179 185 186 184 172 175 167 168 170 169 181 172 164 172 167 158 160 167 164 166 167 159 160 212 250 290 294 208 137 119 114 114 109 86 122 107 101 115 102 89 37 25 18 19 22 22 15 29 34 4
136 199 198 209 218 232 204 236 230 159 226 190 191 203 235 121 194 231 150 165 172 168 173 183 192 193 194 196 193 195 201 201 200 199 200 196 199 188 186 190 192 188 187 181 173 169 174 183 180 189 175 174 168 164 163 162 171 186 173 161 179 163 160 177 169 167 155 163 150 168 187 201 204 192 180 146 132 122 114 102 120 115 109 112 100 97 92 65 37 43 42 50 35 7 29 34 32
191 157 181 212 212 222 219 214 177 183 224 177 175 242 244 183 211 174 161 164 172 177 181 190 196 196 196 197 198 198 202 199 202 207 209 201 192 192 182 195 192 192 193 184 170 167 178 181 178 187 172 176 158 170 156 165 175 182 163 168 182 170 175 181 169 162 148 132 150 164 155 152 152 151 149 156 137 117 116 135 136 126 108 101 99 92 87 95 89 94 87 69 28 8 5 22 3
215 227 236 178 200 228 218 204 192 183 205 161 158 226 227 205 187 153 167 166 171 176 191 196 198 198 197 199 201 202 202 201 204 210 210 209 199 187 183 190 199 195 185 177 167 173 177 177 176 179 177 170 157 173 161 164 172 167 165 172 172 178 179 176 163 157 153 153 153 147 143 145 146 149 158 154 144 141 140 150 139 120 115 112 113 119 110 103 88 67 44 22 37 11 17 16 3
205 174 203 221 187 225 191 203 184 196 171 172 185 228 224 159 174 170 172 172 170 183 193 199 199 200 199 202 203 204 204 205 205 207 212 209 202 205 198 192 197 196 187 178 172 172 176 175 174 174 180 177 152 162 160 163 163 159 158 165 174 183 166 168 156 157 150 153 151 143 144 142 148 153 150 134 129 148 150 143 140 130 135 134 116 105 104 93 77 61 29 25 36 29 15 21 11
185 168 211 209 212 167 170 195 178 198 170 196 187 236 233 143 179 180 174 180 178 181 193 200 201 201 201 201 204 206 209 208 211 211 210 201 199 198 196 195 196 196 195 180 169 166 173 174 175 174 176 171 162 152 153 155 154 155 154 163 170 163 150 156 152 157 142 140 137 136 149 147 154 152 148 150 151 155 156 143 132 133 135 127 111 100 93 87 78 73 52 33 31 33 10 20 15
202 207 203 195 201 192 131 194 194 196 155 217 201 213 113 219 167 178 178 180 185 187 192 200 203 203 200 204 207 208 209 209 212 214 208 203 203 203 197 195 195 195 195 181 170 163 166 169 172 169 166 164 161 148 143 146 157 150 153 159 160 152 139 140 145 155 129 126 130 138 145 150 160 151 149 140 142 148 144 133 133 126 127 116 104 91 85 80 90 83 71 54 43 33 21 13 16
204 206 216 194 190 181 204 93 199 187 179 195 217 230 171 34 164 172 181 186 187 195 197 202 203 202 205 204 206 209 213 212 212 211 207 203 198 193 186 186 187 189 183 180 171 164 162 167 165 159 153 148 148 147 144 143 143 145 137 134 125 124 131 140 160 135 132 134 136 143 149 144 137 142 148 145 140 137 132 132 130 118 106 100 93 84 79 82 79 84 88 65 49 36 31 17 10
195 187 199 160 185 176 194 168 164 189 192 200 194 218 216 115 179 176 180 186 191 197 200 202 202 203 204 205 206 211 215 215 214 209 203 195 186 175 172 173 175 172 169 168 169 156 149 148 143 143 146 141 141 141 139 135 130 123 121 125 127 124 131 155 142 135 132 136 140 147 149 134 137 145 147 141 136 131 130 131 131 116 111 101 98 98 98 91 90 87 87 93 76 55 38 25 7
202 174 180 141 169 185 199 184 147 180 189 203 191 202 205 170 179 187 188 189 195 201 201 205 206 206 205 207 210 212 217 219 209 202 196 191 194 178 168 166 170 165 154 154 158 152 145 142 142 139 144 142 140 144 143 140 140 140 135 125 121 129 136 128 121 125 131 135 135 132 123 128 137 141 138 130 128 129 130 122 104 89 88 98 96 94 92 88 90 86 71 63 69 67 44 23 13
127 154 179 196 188 166 177 193 175 189 181 203 197 199 198 188 184 187 191 190 202 202 201 203 204 203 202 206 208 214 219 219 199 191 178 187 190 174 163 158 157 153 151 154 158 154 146 143 145 146 149 152 154 154 155 152 153 148 143 143 134 144 140 136 133 136 136 128 126 125 119 122 132 129 128 128 123 114 97 86 87 77 77 79 78 74 71 78 66 76 81 60 51 55 41 16 14
208 171 186 182 195 196 185 192 155 197 194 197 190 195 200 189 180 186 188 191 201 202 201 204 205 203 203 206 211 214 218 213 196 183 175 186 183 169 158 161 154 153 156 156 157 153 145 145 147 147 157 163 164 163 160 162 161 157 154 153 142 145 142 140 139 141 135 133 131 125 116 114 124 120 118 114 104 95 95 86 79 80 75 77 75 72 67 65 66 70 88 88 60 59 56 18 7
357 195 182 186 193 170 163 200 174 178 207 195 177 199 198 188 184 185 189 195 201 202 204 203 201 202 204 209 214 213 206 202 198 194 187 186 178 166 169 164 162 157 158 157 153 146 145 145 145 159 166 169 170 163 160 158 153 145 140 141 137 128 113 98 112 129 114 105 86 73 101 105 105 94 94 93 90 85 89 91 85 78 67 74 85 74 61 54 42 44 36 42 101 80 75 43 27
244 219 185 198 160 175 185 202 175 179 196 168 175 200 192 188 194 194 197 197 203 206 208 210 208 208 209 210 210 207 206 204 207 198 193 190 180 169 170 161 163 153 153 152 151 150 148 136 155 164 167 168 162 152 145 138 138 118 96 90 61 77 123 114 74 59 83 100 86 75 66 79 88 93 91 91 87 85 87 88 84 73 65 54 65 71 57 51 39 38 38 49 359 83 57 51 32
220 240 232 183 164 193 190 164 157 136 52 164 157 189 206 200 186 196 202 206 208 205 207 205 205 216 219 219 221 215 209 208 207 198 193 194 193 183 171 162 157 153 151 151 149 142 109 136 168 166 167 162 150 145 137 132 123 107 102 102 110 98 83 67 83 64 27 55 78 66 63 59 70 83 81 81 86 85 82 81 82 81 79 62 65 68 61 51 48 44 34 46 42 55 83 65 42
211 221 230 224 182 184 133 125 140 177 191 186 161 162 215 189 201 192 181 197 210 202 204 206 209 210 211 214 217 214 211 210 203 196 191 183 184 184 173 160 160 157 153 149 142 128 140 179 169 167 159 157 151 141 137 133 137 141 138 136 132 131 124 135 140 127 103 30 66 81 71 60 67 72 74 76 78 82 80 79 83 86 75 69 65 71 70 64 50 47 32 45 56 43 83 90 74
204 207 207 216 225 193 173 157 170 183 200 185 210 207 186 162 204 194 186 191 192 193 208 211 210 213 212 217 211 209 209 201 190 182 180 177 178 178 170 163 162 159 154 148 142 143 158 171 173 166 160 154 142 138 141 144 155 156 152 151 147 147 138 131 121 108 96 77 88 76 74 64 62 67 66 69 73 77 82 77 76 76 76 73 71 69 65 59 55 44 43 50 48 44 46 90 82
202 138 176 190 186 163 182 175 202 188 32 107 199 229 219 197 214 192 186 196 199 198 203 211 204 205 214 214 212 205 205 195 185 186 184 179 175 181 182 170 160 157 153 152 148 152 165 167 168 167 154 145 139 142 151 158 157 151 144 129 136 146 137 127 123 109 110 128 92 82 76 63 59 58 63 64 65 69 75 76 76 79 77 74 72 69 68 66 69 60 55 57 55 48 46 67 71
169 142 159 178 199 182 153 173 181 167 183 191 195 160 220 224 143 176 182 196 207 209 207 208 210 213 216 216 214 207 201 193 186 186 186 183 178 183 179 170 157 152 156 157 155 157 160 165 166 158 148 143 141 141 146 157 155 152 145 147 134 122 122 122 127 125 126 125 102 87 81 76 65 56 58 63 64 68 71 75 75 78 80 80 80 80 73 69 64 61 56 53 56 55 50 50 64
157 171 148 134 176 198 224 183 166 155 195 210 185 180 211 163 171 183 189 201 203 207 209 211 213 216 218 217 216 205 197 192 188 184 180 180 178 178 174 165 157 158 161 158 160 162 161 160 161 159 148 141 144 146 152 162 150 139 148 139 132 130 129 127 126 126 123 112 103 97 85 82 79 75 67 68 72 72 73 75 78 79 80 82 81 82 80 70 66 66 62 66 65 68 56 56 62
110 136 162 131 134 183 143 302 194 163 225 222 161 181 217 212 194 194 185 203 194 195 204 212 215 219 221 219 215 208 199 189 183 179 173 173 175 167 159 162 163 156 161 164 164 168 160 160 162 163 154 144 148 154 163 168 153 147 158 150 141 143 145 140 134 126 119 111 105 98 93 88 86 88 87 74 72 77 77 77 81 83 84 85 83 78 74 77 74 74 73 69 62 63 66 68 69
165 179 183 161 156 148 173 142 205 213 228 141 166 184 191 222 184 201 201 163 194 192 198 206 211 215 215 213 212 211 204 188 183 176 170 166 166 165 160 159 165 159 160 160 158 163 165 162 160 157 149 151 155 153 136 146 153 161 157 144 151 151 148 146 143 138 133 118 113 112 109 102 93 91 88 86 76 81 87 88 88 87 84 82 78 78 79 81 82 79 71 68 70 69 73 73 72
198 181 183 187 169 173 178 170 196 216 215 97 168 159 166 230 183 179 196 203 195 201 202 203 206 213 212 210 210 207 201 183 182 176 167 169 172 167 163 160 158 159 160 162 161 165 167 162 161 150 145 148 132 113 154 177 171 165 153 148 147 145 137 146 144 134 133 123 123 124 126 117 117 108 95 92 89 95 100 100 95 92 89 83 87 87 85 85 81 78 77 77 77 74 70 71 71
196 192 183 187 178 183 195 193 194 96 69 45 167 170 222 60 243 196 194 199 201 202 209 210 207 208 201 199 201 201 191 170 173 183 176 169 169 164 161 163 162 161 163 165 165 158 157 157 157 149 140 135 130 153 166 168 168 156 149 145 144 142 141 145 148 136 129 119 128 129 129 126 118 112 109 100 105 102 95 95 93 91 93 95 94 90 87 81 83 86 86 85 83 81 81 78 78
194 202 193 200 186 197 179 183 178 186 157 104 160 164 218 165 185 166 195 201 201 203 208 212 203 144 166 188 200 204 191 180 180 179 176 168 162 164 162 163 164 164 160 158 155 151 150 150 153 145 141 142 141 153 162 175 167 154 137 131 140 141 137 141 134 126 122 120 121 119 117 115 115 116 109 108 110 105 102 101 100 98 99 99 96 93 89 89 89 92 91 87 85 84 82 82 81
227 3 51 200 211 336 118 113 120 124 121 115 172 212 211 168 34 338 258 197 204 205 205 175 160 167 168 175 198 203 199 191 188 186 176 168 166 162 163 161 162 158 155 151 152 151 152 151 148 142 145 148 154 157 162 173 166 140 135 146 131 123 129 125 117 108 98 104 118 121 121 115 116 113 107 112 110 112 108 103 99 100 101 100 96 95 96 96 96 96 94 93 90 87 90 88 91
174 176 201 201 97 100 100 63 28 53 132 186 95 249 241 314 329 25 169 165 191 204 213 201 184 175 174 188 199 201 197 191 186 183 175 170 163 163 163 165 159 153 151 153 152 154 153 149 144 143 141 149 158 159 151 145 143 132 133 130 124 134 136 136 131 120 112 108 110 112 116 118 114 111 114 113 114 111 109 108 107 105 102 101 99 98 101 100 97 95 98 98 95 94 92 89 89
115 203 182 73 45 11 175 163 136 181 188 165 164 194 160 177 176 62 162 179 186 192 198 198 190 176 182 191 195 196 191 188 181 174 170 172 170 162 161 162 158 154 154 154 154 155 154 154 154 148 146 150 154 152 141 147 143 128 132 134 143 139 136 128 131 130 128 124 117 114 120 123 121 120 119 120 119 113 109 109 109 108 106 104 105 104 101 100 101 98 99 97 99 102 99 95 89
208 190 91 179 179 205 247 138 170 168 185 154 189 293 246 207 181 146 179 191 194 194 189 188 188 191 196 191 193 189 185 179 172 171 166 169 169 166 164 158 152 154 153 153 154 146 148 157 158 153 152 152 152 150 140 140 131 127 138 149 138 128 124 124 110 107 113 123 126 127 123 120 122 125 123 123 121 116 115 113 114 113 112 110 107 104 106 106 108 107 104 104 106 108 104 98 91
346 115 178 13 274 220 151 221 17 196 173 151 153 172 217 195 213 182 182 199 195 184 179 188 190 195 195 184 187 183 177 174 167 167 167 169 169 166 162 156 155 152 153 154 152 155 156 155 145 133 141 138 137 136 136 129 125 127 129 127 123 123 127 129 133 135 131 126 127 128 128 129 130 125 120 121 120 120 122 122 121 120 118 114 110 110 113 115 112 109 112 111 112 113 106 99 95
174 189 188 162 241 358 301 95 223 185 162 197 161 193 219 195 205 193 192 189 196 180 185 191 193 198 190 180 183 182 175 171 170 161 161 162 157 153 151 154 153 148 146 147 151 154 152 147 131 133 143 149 137 139 134 127 127 130 133 130 127 129 134 134 128 117 109 117 125 129 127 128 123 118 122 123 123 125 125 125 125 124 121 118 118 118 119 118 115 115 114 116 118 112 107 102 99
189 187 186 188 166 172 189 207 85 154 241 185 180 219 207 203 136 199 205 205 184 185 189 188 195 189 179 178 184 179 171 170 170 169 162 159 153 145 143 145 147 144 148 150 149 149 149 149 140 134 136 142 133 135 132 127 130 130 130 132 125 118 116 117 116 121 122 128 127 127 133 132 118 114 122 124 125 124 128 128 125 123 121 122 124 124 124 122 121 121 120 118 116 111 107 103 100